Preview of NWS' New Version of Forecast
This preview is not operational and should not be used for support decisions.

Regional Weather Roundup (RWR)

Issued by National Weather Service (NWS)

                            
000
ASUS46 KPQR 210410
RWROR 

OREGON REGIONAL WEATHER ROUNDUP
NATIONAL WEATHER SERVICE PORTLAND OR
900 PM PDT TUE AUG 20 2019

NOTE: "FAIR" INDICATES FEW OR NO CLOUDS BELOW 12,000 FEET WITH
NO SIGNIFICANT WEATHER AND/OR OBSTRUCTIONS TO VISIBILITY.

ORZ001>013-210500-
NORTHWEST OREGON

  
CITY           SKY/WX    TMP DP  RH WIND       PRES   REMARKS
ASTORIA        PTCLDY    64  55  72 S6        29.98S                  
TILLAMOOK      PTCLDY    63  54  72 SW3       30.03S                  
NEWPORT        PTCLDY    61  54  77 S8        30.06R                  
FLORENCE       FAIR      63  54  72 CALM      30.05R                  
PORTLAND       MOCLDY    73  60  63 CALM      29.97R                  
VANCOUVER WA   MOCLDY    72  58  61 N3        29.97R                  
SCAPPOOSE      MOCLDY    69  58  67 N7        29.97R                  
HILLSBORO      MOCLDY    68  54  60 W7        29.99R                  
AURORA         MOCLDY    70  52  52 SW7       30.01R                  
MCMINNVILLE    MOCLDY    66  53  63 SW10      30.00R                  
SALEM          MOCLDY    67  52  58 SW9       30.02R                  
CORVALLIS      MOCLDY    65  55  70 NW6       30.04R                  
EUGENE         MOCLDY    66  53  63 SW6       30.05R                  
CRESWELL         N/A     68  54  60 W8        30.04R                  
$$

ORZ021-028-210500-
SOUTHWEST OREGON

  
CITY           SKY/WX    TMP DP  RH WIND       PRES   REMARKS
NORTH BEND     CLEAR     62  54  74 SE7       30.06S                  
BROOKINGS      CLEAR     58  54  86 E3        30.08F                  
ROSEBURG       MOCLDY    70  55  59 N7        30.04R                  
SEXTON SUMMIT  PTCLDY    65  43  44 VRB3      30.13R                  
GRANTS PASS    FAIR      75  46  35 CALM      30.04R                  
MEDFORD        MOCLDY    79  46  31 N9        29.98R                  
$$

ORZ014>016-041-210500-
COLUMBIA GORGE

  
CITY           SKY/WX    TMP DP  RH WIND       PRES   REMARKS
TROUTDALE      MOCLDY    75  50  41 S8        29.97R                  
HOOD RIVER     MOCLDY    77  54  44 W6        29.95R                  
THE DALLES     CLOUDY    80  55  42 NW24G33   29.89R                  
$$

ORZ029>031-041-044-049-050-061>064-502-503-505>511-210500-
EASTERN OREGON

  
CITY           SKY/WX    TMP DP  RH WIND       PRES   REMARKS
MADRAS         CLOUDY    73  54  49 NW9       30.01R                  
REDMOND        CLOUDY    76  52  43 NW14      30.02R                  
BEND           CLOUDY    73  52  46 NW7       30.04R                  
PRINEVILLE     CLOUDY    73  54  49 W12       30.02R                  
KLAMATH FALLS  CLOUDY    71  51  49 W8        30.08R                  
LAKEVIEW       MOCLDY    60  37  42 S7        30.12R                  
HERMISTON      CLOUDY    83  53  35 W5        29.82R                  
PENDLETON      CLOUDY    75  46  35 NW5       29.87R HAZE             
JOHN DAY       CLEAR     80  44  28 NW7       29.99R                  
MEACHAM        MOCLDY    65  47  52 CALM      30.03R                  
LA GRANDE      PTCLDY    77  48  35 NW8       29.94R                  
BAKER CITY     PTCLDY    74  49  41 SW8       29.97R                  
BURNS          PTCLDY    70  31  23 NW9       30.01R                  
ROME             N/A     75  20  12 S3        29.97R                  
ONTARIO        CLEAR     78  55  44 CALM      29.86R                  
$$